This is the latest recevied weather packets stored in our database for station/object KB1JL-13. If no packets are shown the sender has not sent any weather packets the latest 10 day(s).
| Time | Temp. | Humidity | Pressure | Rain* | Wind** | Luminosity | Snow |
|---|---|---|---|---|---|---|---|
| 1787869726 | 22.78° C | 88% | 1027.4 hPa | 0 mm | - | 54 W/m² | - |
| 1787869420 | 22.78° C | 88% | 1027.1 hPa | 0 mm | - | 55 W/m² | - |
| 1787869115 | 22.78° C | 88% | 1027.1 hPa | 0 mm | - | 58 W/m² | - |
| 1787868814 | 22.78° C | 89% | 1027.1 hPa | 0 mm | - | 55 W/m² | - |
| 1787868512 | 22.78° C | 88% | 1027.1 hPa | 0 mm | - | 62 W/m² | - |
| 1787868212 | 22.78° C | 86% | 1027.4 hPa | 0 mm | - | 68 W/m² | - |
| 1787867909 | 23.33° C | 87% | 1027.4 hPa | 0 mm | - | 66 W/m² | - |
| 1787867603 | 23.33° C | 87% | 1027.4 hPa | 0 mm | - | 66 W/m² | - |
| 1787867302 | 23.33° C | 86% | 1027.4 hPa | 0 mm | - | 68 W/m² | - |
| 1787867006 | 23.33° C | 85% | 1027.4 hPa | 0 mm | - | 87 W/m² | - |
| 1787866694 | 23.89° C | 84% | 1027.4 hPa | 0 mm | - | 107 W/m² | - |
| 1787866392 | 23.89° C | 84% | 1027.8 hPa | 0 mm | - | 260 W/m² | - |
| 1787866087 | 24.44° C | 83% | 1027.8 hPa | 0 mm | - | 218 W/m² | - |
| 1787865782 | 24.44° C | 83% | 1028.1 hPa | 0 mm | - | 215 W/m² | - |
| 1787865477 | 24.44° C | 82% | 1028.1 hPa | 0 mm | - | 264 W/m² | - |
| 1787865172 | 24.44° C | 81% | 1028.1 hPa | 0 mm | - | 305 W/m² | - |
| 1787864869 | 24.44° C | 82% | 1028.4 hPa | 0 mm | - | 344 W/m² | - |
| 1787864569 | 25° C | 81% | 1028.1 hPa | 0 mm | - | 285 W/m² | - |
| 1787864263 | 24.44° C | 82% | 1028.4 hPa | 0 mm | - | 391 W/m² | - |
| 1787863958 | 24.44° C | 81% | 1028.8 hPa | 0 mm | - | 296 W/m² | - |
| 1787863657 | 24.44° C | 83% | 1028.4 hPa | 0 mm | - | 151 W/m² | - |
| 1787863355 | 24.44° C | 82% | 1028.4 hPa | 0 mm | - | 255 W/m² | - |
| 1787863052 | 24.44° C | 82% | 1028.4 hPa | 0 mm | - | 295 W/m² | - |
| 1787862748 | 23.89° C | 85% | 1028.8 hPa | 0 mm | - | 236 W/m² | - |
| 1787862446 | 23.89° C | 84% | 1028.4 hPa | 0 mm | - | 155 W/m² | - |
* Rain latest hour (hover to see other rain measurements)
** Current wind speed in m/s (hover to see current wind gust speed)